DW7857 Weather Reports


time (UTC)temp
C
wind
direction
speed
KPH
gust
KPH
rain 1hr
cm
rain 24hr
cm
rain mn
cm
humidity
%
barometer
mb
20260508145403 18 155 8.0 11.3 0.00 0.00 0.00 50 1013.9
20260508144503 18 153 9.7 12.9 0.00 0.00 0.00 46 1014.1
20260508143603 18 129 8.0 12.9 0.00 0.00 0.00 46 1013.8
20260508142703 18 165 8.0 12.9 0.00 0.00 0.00 46 1013.9
20260508141803 18 182 11.3 17.7 0.00 0.00 0.00 46 1014.1
20260508140903 18 178 12.9 17.7 0.00 0.00 0.00 46 1014.0
20260508140003 18 183 11.3 16.1 0.00 0.00 0.00 46 1014.1
20260508135403 18 186 11.3 16.1 0.00 0.00 0.00 46 1014.0
20260508134503 19 174 9.7 14.5 0.00 0.00 0.00 49 1013.9
20260508133603 18 146 11.3 14.5 0.00 0.00 0.00 45 1014.1
20260508132703 18 171 9.7 12.9 0.00 0.00 0.00 50 1013.9
20260508131803 18 168 9.7 19.3 0.00 0.00 0.00 47 1013.9
20260508130903 18 203 11.3 14.5 0.00 0.00 0.00 50 1013.9
20260508130003 18 217 11.3 14.5 0.00 0.00 0.00 47 1013.7
20260508125403 18 149 9.7 14.5 0.00 0.00 0.00 49 1013.7
20260508124503 18 170 9.7 12.9 0.00 0.00 0.00 50 1014.1
20260508123604 17 209 11.3 16.1 0.00 0.00 0.00 49 1013.9
20260508122703 17 250 14.5 19.3 0.00 0.00 0.00 50 1013.8
20260508121803 18 250 11.3 16.1 0.00 0.00 0.00 49 1013.7
20260508120903 18 187 8.0 16.1 0.00 0.00 0.00 50 1013.7
20260508120003 18 165 8.0 12.9 0.00 0.00 0.00 50 1013.8
20260508115403 17 183 9.7 17.7 0.00 0.00 0.00 51 1013.7
20260508114503 17 207 9.7 17.7 0.00 0.00 0.00 52 1013.7
20260508113603 17 242 11.3 17.7 0.00 0.00 0.00 55 1013.7
20260508112703 17 129 9.7 12.9 0.00 0.00 0.00 51 1013.8
20260508111803 17 183 9.7 12.9 0.00 0.00 0.00 52 1014.0
20260508110903 17 194 9.7 12.9 0.00 0.00 0.00 56 1013.8
20260508110004 17 192 11.3 17.7 0.00 0.00 0.00 58 1013.6
20260508105614 17 194 11.3 17.7 0.00 0.00 0.00 57 1013.8
20260508104503 17 168 9.7 12.9 0.00 0.00 0.00 55 1013.8
20260508103813 16 181 9.7 12.9 0.00 0.00 0.00 58 1013.8
20260508102703 16 188 9.7 12.9 0.00 0.00 0.00 57 1013.5
20260508101803 17 140 6.4 12.9 0.00 0.00 0.00 58 1013.6
20260508100903 16 173 8.0 12.9 0.00 0.00 0.00 60 1013.6
20260508100003 16 104 8.0 12.9 0.00 0.00 0.00 61 1013.7
20260508095403 16 178 8.0 12.9 0.00 0.00 0.00 62 1013.6
20260508094503 16 138 8.0 12.9 0.00 0.00 0.00 61 1013.5
20260508093604 16 181 6.4 9.7 0.00 0.00 0.00 63 1013.2
20260508092914 16 139 6.4 9.7 0.00 0.00 0.00 66 1013.3
20260508091803 16 106 6.4 9.7 0.00 0.00 0.00 68 1013.5
20260508090903 15 61 6.4 12.9 0.00 0.00 0.00 72 1013.4
20260508090003 14 121 6.4 9.7 0.00 0.00 0.00 70 1013.6
20260508085403 15 102 4.8 8.0 0.00 0.00 0.00 69 1013.6
20260508084713 15 60 3.2 8.0 0.00 0.00 0.00 71 1013.8
20260508083603 14 87 4.8 9.7 0.00 0.00 0.00 73 1013.5
20260508082913 14 76 3.2 6.4 0.00 0.00 0.00 76 1013.5
20260508081803 13 166 3.2 6.4 0.00 0.00 0.00 76 1013.4
20260508080903 13 83 3.2 4.8 0.00 0.00 0.00 76 1013.7
20260508080003 12 141 3.2 4.8 0.00 0.00 0.00 75 1013.6
20260508075404 13 137 3.2 6.4 0.00 0.00 0.00 75 1013.6
20260508074503 13 289 1.6 6.4 0.00 0.00 0.00 75 1013.4
20260508073603 13 13 1.6 3.2 0.00 0.00 0.00 75 1013.4
20260508072703 13 37 3.2 4.8 0.00 0.00 0.00 76 1013.2
20260508072012 13 41 3.2 4.8 0.00 0.00 0.00 79 1013.2
20260508071114 12 332 3.2 4.8 0.00 0.00 0.00 77 1013.4
20260508070003 12 65 1.6 3.2 0.00 0.00 0.00 75 1013.3
20260508065403 12 65 3.2 3.2 0.00 0.00 0.00 74 1013.1
20260508064503 13 80 3.2 4.8 0.00 0.00 0.00 73 1013.2
20260508063603 13 328 3.2 6.4 0.00 0.00 0.00 76 1013.1
20260508062703 13 318 3.2 4.8 0.00 0.00 0.00 80 1012.9
20260508061803 13 30 3.2 6.4 0.00 0.00 0.00 85 1012.9
20260508060903 12 5 3.2 4.8 0.00 0.00 0.00 91 1013.1
20260508060213 11 324 1.6 3.2 0.00 0.00 0.00 91 1013.1
20260508055403 11 356 1.6 3.2 0.00 0.00 0.00 91 1013.2
20260508054503 10 360 1.6 3.2 0.00 0.00 0.00 90 1012.9
20260508053603 10 357 1.6 3.2 0.00 0.00 0.00 90 1012.8
20260508052703 10 315 1.6 3.2 0.00 0.00 0.00 90 1012.9
20260508051803 10 289 0.0 3.2 0.00 0.00 0.00 90 1012.9
20260508050903 9 349 1.6 3.2 0.00 0.00 0.00 89 1012.9
20260508050003 9 28 1.6 3.2 0.00 0.00 0.00 88 1012.9
20260508045614 9 14 1.6 3.2 0.00 0.00 0.00 88 1012.8
20260508044503 9 360 1.6 3.2 0.00 0.00 0.00 87 1012.7
20260508043603 10 321 1.6 3.2 0.00 0.00 0.00 87 1012.7
20260508042703 10 315 0.0 1.6 0.00 0.00 0.00 86 1012.9
20260508041803 10 315 0.0 3.2 0.00 0.00 0.00 86 1013.0
20260508040903 10 315 1.6 3.2 0.00 0.00 0.00 86 1012.7
20260508040214 10 315 0.0 1.6 0.00 0.00 0.00 86 1013.0
20260508035403 10 315 0.0 1.6 0.00 0.00 0.00 86 1013.0
20260508034713 10 315 0.0 1.6 0.00 0.00 0.00 86 1012.9
20260508033814 10 315 0.0 3.2 0.00 0.00 0.00 86 1013.1
20260508032703 10 315 0.0 3.2 0.00 0.00 0.00 86 1012.9
20260508031803 10 315 0.0 1.6 0.00 0.00 0.00 86 1013.1
20260508031114 10 298 1.6 3.2 0.00 0.00 0.00 86 1013.1
20260508030214 10 211 1.6 3.2 0.00 0.00 0.00 86 1013.2
20260508025403 10 157 1.6 3.2 0.00 0.00 0.00 86 1013.1
20260508024503 10 162 0.0 3.2 0.00 0.00 0.00 86 1013.0
20260508023603 10 112 1.6 3.2 0.00 0.00 0.00 85 1013.3
20260508022703 10 321 0.0 3.2 0.00 0.00 0.00 84 1013.3
20260508021803 10 279 1.6 3.2 0.00 0.00 0.00 84 1013.2
20260508020903 10 174 1.6 3.2 0.00 0.00 0.00 84 1013.2
20260508020004 10 176 1.6 4.8 0.00 0.00 0.00 83 1013.1
20260508015613 10 156 1.6 4.8 0.00 0.00 0.00 82 1013.2
20260508014504 10 97 1.6 3.2 0.00 0.00 0.00 82 1013.1
20260508013603 10 190 1.6 3.2 0.00 0.00 0.00 82 1013.4
20260508012703 10 222 1.6 3.2 0.00 0.00 0.00 82 1013.7
20260508011803 10 109 3.2 3.2 0.00 0.00 0.00 81 1013.4
20260508010903 10 72 1.6 3.2 0.00 0.00 0.00 81 1013.5
20260508010003 10 204 1.6 3.2 0.00 0.00 0.00 80 1013.6
20260508005403 10 334 1.6 3.2 0.00 0.00 0.00 80 1013.7
20260508004503 10 235 1.6 3.2 0.00 0.00 0.00 80 1013.6
20260508003603 10 218 1.6 3.2 0.00 0.00 0.00 79 1013.5
20260508002914 10 212 1.6 3.2 0.00 0.00 0.00 78 1013.8
20260508001803 11 326 1.6 3.2 0.00 0.00 0.00 76 1013.7
20260508000903 11 33 1.6 3.2 0.00 0.00 0.00 75 1013.4
20260508000003 11 176 3.2 6.4 0.00 0.00 0.00 74 1013.5
20260507235403 11 186 3.2 6.4 0.00 0.00 0.00 73 1013.7
20260507234503 11 181 3.2 6.4 0.00 0.00 0.00 72 1013.9
20260507233603 11 188 3.2 6.4 0.00 0.00 0.00 71 1013.8
20260507232703 11 124 3.2 6.4 0.00 0.00 0.00 70 1013.8
20260507231803 11 211 3.2 4.8 0.00 0.00 0.00 68 1013.8
20260507230903 11 172 1.6 3.2 0.00 0.00 0.00 67 1014.1
20260507230004 11 243 1.6 3.2 0.00 0.00 0.00 65 1014.0
20260507225403 11 246 1.6 3.2 0.00 0.00 0.00 65 1014.1
20260507224504 11 150 1.6 4.8 0.00 0.00 0.00 64 1013.8
20260507223603 11 156 1.6 3.2 0.00 0.00 0.00 62 1013.8
20260507222703 11 220 0.0 3.2 0.00 0.00 0.00 61 1013.9
20260507222013 11 180 1.6 3.2 0.00 0.00 0.00 61 1013.9
20260507220903 11 182 3.2 3.2 0.00 0.00 0.00 60 1013.9
20260507220003 11 308 1.6 3.2 0.00 0.00 0.00 60 1013.9
20260507215613 11 297 0.0 3.2 0.00 0.00 0.00 60 1013.9
20260507214712 11 225 0.0 1.6 0.00 0.00 0.00 60 1014.0
20260507213603 11 225 0.0 1.6 0.00 0.00 0.00 60 1013.9
20260507212703 11 198 0.0 1.6 0.00 0.00 0.00 58 1014.2
20260507211803 11 201 1.6 3.2 0.00 0.00 0.00 57 1014.0
20260507211114 11 209 1.6 3.2 0.00 0.00 0.00 57 1014.0
20260507210004 11 185 1.6 3.2 0.00 0.00 0.00 58 1013.8
20260507205613 11 269 1.6 3.2 0.00 0.00 0.00 59 1014.0
20260507204712 11 212 1.6 3.2 0.00 0.00 0.00 61 1013.9
20260507203814 11 190 1.6 3.2 0.00 0.00 0.00 62 1014.0
20260507202703 11 90 1.6 3.2 0.00 0.00 0.00 64 1013.6
20260507201803 11 90 0.0 3.2 0.00 0.00 0.00 65 1013.6
20260507200903 11 90 0.0 1.6 0.00 0.00 0.00 66 1013.7
20260507200003 12 165 1.6 3.2 0.00 0.00 0.00 67 1013.4
20260507195403 12 164 0.0 3.2 0.00 0.00 0.00 67 1013.3
20260507194503 12 172 1.6 3.2 0.00 0.00 0.00 67 1013.4
20260507193603 12 103 1.6 3.2 0.00 0.00 0.00 66 1013.4
20260507192703 12 160 1.6 3.2 0.00 0.00 0.00 65 1013.1
20260507191803 12 166 1.6 3.2 0.00 0.00 0.00 61 1013.5
20260507190903 12 154 1.6 3.2 0.00 0.00 0.00 60 1012.9
20260507190004 12 166 1.6 3.2 0.00 0.00 0.00 58 1013.0
20260507185403 12 144 1.6 4.8 0.00 0.00 0.00 56 1012.9
20260507184503 12 199 3.2 6.4 0.00 0.00 0.00 54 1013.0
20260507183603 13 191 3.2 9.7 0.00 0.00 0.00 52 1013.0
20260507182703 13 219 4.8 6.4 0.00 0.00 0.00 51 1013.1
20260507181803 13 193 4.8 6.4 0.00 0.00 0.00 50 1013.2
20260507180903 13 197 4.8 6.4 0.00 0.00 0.00 50 1012.9
20260507180004 13 193 6.4 8.0 0.00 0.00 0.00 50 1013.1
20260507175403 13 218 8.0 9.7 0.00 0.00 0.00 50 1013.2
20260507174503 13 241 4.8 6.4 0.00 0.00 0.00 51 1013.2
20260507173603 13 182 4.8 6.4 0.00 0.00 0.00 52 1013.0
20260507172703 13 158 6.4 8.0 0.00 0.00 0.00 52 1012.9
20260507171803 14 197 6.4 8.0 0.00 0.00 0.00 51 1012.9
20260507171112 14 138 4.8 6.4 0.00 0.00 0.00 51 1013.2
20260507170003 14 137 6.4 9.7 0.00 0.00 0.00 52 1013.2
20260507165403 15 111 6.4 6.4 0.00 0.00 0.00 52 1013.0
20260507164503 15 187 8.0 11.3 0.00 0.00 0.00 51 1013.2
20260507163603 15 182 6.4 11.3 0.00 0.00 0.00 50 1013.2
20260507162703 15 159 8.0 12.9 0.00 0.00 0.00 47 1013.1
20260507161803 15 194 8.0 12.9 0.00 0.00 0.00 48 1013.2
20260507160903 15 187 11.3 16.1 0.00 0.00 0.00 46 1013.2
20260507160003 16 226 9.7 12.9 0.00 0.00 0.00 46 1013.2
20260507155403 16 205 9.7 17.7 0.00 0.00 0.00 46 1013.2
20260507154503 16 178 8.0 17.7 0.00 0.00 0.00 45 1013.3
20260507153603 16 203 8.0 17.7 0.00 0.00 0.00 44 1013.4
20260507152703 16 186 9.7 12.9 0.00 0.00 0.00 46 1013.2
20260507152014 16 163 9.7 16.1 0.00 0.00 0.00 44 1013.3
20260507151114 16 117 8.0 12.9 0.00 0.00 0.00 47 1013.3
20260507150003 16 186 8.0 12.9 0.00 0.00 0.00 46 1013.4